GFSNE_925_spd_099.txt.gz
Wind_Speed
25 24 24 27 24 18 24 22 17 4 4 13 16 23 26 28 28 29 30 31 32 33 31 33 35 35 37 37 40 41 44 45 44 40 39 35 34 31
23 21 25 24 24 23 23 21 21 18 5 14 24 28 27 27 27 27 30 31 31 30 27 28 30 33 35 36 38 38 37 40 42 38 37 35 31 31
26 26 26 25 25 27 28 25 35 26 13 23 27 32 29 30 31 30 29 30 29 28 29 32 29 29 30 31 33 33 32 30 28 29 30 28 28 25
34 29 28 28 27 34 34 32 35 32 23 25 27 29 30 32 28 25 24 24 26 27 30 27 25 25 24 25 27 25 23 21 21 18 18 18 18 17
36 36 33 33 36 39 40 35 34 33 31 25 27 22 24 24 24 25 24 22 19 17 17 16 15 14 14 12 11 12 13 13 14 13 15 18 20 22
38 40 39 36 38 36 36 37 36 31 28 24 23 25 28 26 20 16 13 9 9 5 1 3 3 3 3 2 1 3 4 6 11 16 21 23 22 22
37 36 39 40 40 37 38 37 35 30 26 24 22 20 18 14 13 13 11 10 4 2 2 2 3 4 6 8 9 11 10 12 13 14 15 17 19 19
38 40 40 40 40 40 41 40 38 31 29 26 24 16 18 14 12 12 10 5 3 2 3 3 3 5 5 6 8 9 9 9 8 10 12 15 18 20
38 37 40 38 35 32 30 29 27 26 29 29 18 6 7 4 7 10 9 5 5 5 5 3 3 3 9 11 10 7 7 8 10 13 18 21 23 24
39 39 40 39 33 28 21 13 6 5 4 11 16 18 18 11 11 10 7 11 9 11 13 4 8 11 18 15 4 6 8 12 17 21 23 21 22 23
35 30 30 30 27 24 23 22 26 29 29 30 29 25 23 16 14 8 12 10 5 7 12 9 9 18 13 5 3 9 16 24 26 22 23 24 24 25
23 20 19 21 24 24 25 27 27 23 25 27 25 23 22 20 17 15 13 11 4 3 10 9 9 12 7 4 9 19 24 17 25 28 24 23 23 25
20 21 23 27 29 29 28 28 31 27 26 24 21 22 20 17 19 16 14 12 8 5 11 12 5 8 4 9 10 16 13 28 28 25 20 19 22 26
30 32 35 33 31 29 30 30 28 25 25 23 21 18 16 16 14 13 11 10 9 7 7 10 5 9 8 9 8 18 24 24 22 20 20 29 27 26
37 39 38 38 39 31 26 22 23 24 23 22 20 16 13 12 11 11 11 8 7 8 9 10 10 9 12 10 13 18 23 20 18 17 29 25 27 26
40 35 35 31 36 32 28 25 21 19 23 18 16 14 12 12 14 10 11 10 8 10 10 10 11 14 14 15 17 21 20 15 24 25 28 30 28 25
41 38 35 31 26 23 26 23 18 17 19 16 13 14 13 11 12 12 12 11 10 10 15 17 14 16 11 15 18 19 22 25 25 29 28 31 32 28
27 28 26 24 20 18 20 20 19 17 15 14 14 11 10 10 9 10 11 12 12 13 14 18 21 23 21 11 7 18 21 25 32 28 26 27 35 33
29 23 23 23 20 19 19 17 16 15 13 14 14 12 11 11 10 10 12 12 12 12 11 14 16 14 10 7 16 10 25 32 30 31 27 27 32 39
25 23 21 21 19 19 18 17 14 13 13 13 13 12 10 9 9 10 9 11 11 12 13 13 12 13 14 10 20 36 21 27 27 32 33 32 32 34
23 22 20 19 18 18 18 16 13 12 11 10 9 9 8 8 6 6 8 9 10 9 12 13 16 18 21 21 18 24 32 26 25 30 34 28 27 28
22 21 19 18 17 15 13 11 12 10 9 7 6 6 6 5 6 7 8 9 10 11 14 18 22 22 17 17 21 29 35 39 37 26 24 21 21 5
19 18 16 14 11 10 9 8 8 8 6 4 4 5 5 6 6 6 7 9 12 15 17 19 21 17 17 18 21 26 32 36 33 39 31 18 14 14

GFSNE_925_spd_105.txt.gz
Wind_Speed
35 34 31 28 22 24 28 21 13 5 4 5 8 8 15 18 17 14 16 19 18 19 20 21 22 24 25 24 25 25 26 28 31 31 33 35 37 37
37 35 24 23 24 31 31 24 19 13 9 13 10 11 16 14 14 17 18 20 21 21 24 25 27 26 26 26 25 26 28 30 31 31 33 35 30 28
34 34 30 25 26 24 20 18 24 16 13 15 21 17 18 22 23 23 22 22 22 23 25 25 26 26 25 26 28 30 29 30 29 27 24 24 27 27
32 33 31 32 24 24 24 27 30 26 22 19 18 23 26 29 26 23 20 20 18 22 24 24 24 24 21 23 22 21 20 19 19 18 18 17 16 14
40 32 31 29 30 23 25 31 23 28 30 21 18 18 24 29 30 29 21 17 15 16 17 12 8 8 7 5 6 6 4 1 2 2 2 6 7 10
36 35 34 33 38 32 32 25 29 25 21 20 20 20 20 19 23 17 19 14 13 11 8 9 11 12 11 10 10 9 9 8 8 9 10 11 12 13
32 35 34 37 39 40 33 33 29 27 23 22 22 23 20 19 21 20 19 18 12 13 14 13 8 6 9 8 8 7 7 9 11 13 14 15 15 16
30 33 34 34 34 34 33 34 32 28 24 22 20 19 22 22 26 23 18 10 5 15 12 10 6 7 7 7 7 5 8 9 10 12 13 16 19 20
30 30 31 34 35 35 32 32 34 34 33 29 24 22 20 21 19 15 15 8 5 9 13 8 7 8 8 6 3 7 11 10 11 14 18 22 21 19
30 30 31 31 40 38 32 24 18 15 15 17 17 15 16 14 15 13 15 22 20 13 9 4 5 6 5 4 3 6 7 11 16 20 20 18 18 17
31 30 28 28 33 35 32 22 12 13 16 16 18 16 13 15 17 20 18 12 6 8 10 5 5 3 1 2 1 8 13 13 21 18 20 17 16 21
28 30 31 30 33 35 30 30 26 24 22 23 24 23 22 21 18 18 15 16 9 6 10 4 4 6 2 2 5 9 10 17 19 18 16 15 18 24
17 11 9 9 16 16 19 23 26 30 29 29 28 27 25 24 24 20 18 14 12 11 5 6 3 2 2 4 7 6 14 17 17 15 16 18 23 23
23 26 28 28 26 25 28 33 32 30 30 28 27 23 23 23 19 19 20 19 18 16 9 8 6 4 3 4 5 11 14 15 13 15 19 22 23 23
37 41 40 39 39 36 35 33 30 29 28 30 25 21 19 14 16 16 17 16 16 14 10 10 7 4 2 4 7 9 13 14 9 21 22 23 24 24
36 39 41 41 40 36 33 29 28 25 26 25 22 17 15 15 15 12 9 10 13 9 9 8 8 6 4 4 7 10 13 11 19 18 22 23 22 21
36 36 33 34 32 30 29 28 24 21 21 19 16 15 15 14 11 9 11 10 10 8 7 8 9 5 5 7 5 11 14 17 19 22 22 24 23 20
34 27 25 23 23 21 21 20 17 17 16 16 15 13 12 11 11 11 11 11 9 6 7 10 13 12 12 5 3 10 15 17 21 21 21 22 24 20
29 22 21 20 19 17 17 16 16 15 15 14 13 12 12 11 11 12 9 8 7 7 8 10 13 14 11 8 7 5 17 21 21 21 18 19 22 22
21 20 19 18 17 17 16 16 16 14 14 13 13 13 11 11 10 9 8 7 6 7 8 9 10 10 9 9 11 21 19 19 20 22 22 19 17 16
18 19 17 17 16 16 15 14 14 14 13 13 12 12 10 9 9 8 7 9 7 7 7 7 9 11 11 12 13 20 20 17 17 19 19 16 12 7
16 17 16 16 15 14 14 14 14 12 11 11 11 11 9 8 8 8 8 6 6 6 6 8 10 11 11 13 17 20 23 23 18 14 9 11 7 4
15 15 14 14 12 11 11 11 11 10 10 10 8 9 9 8 7 6 6 5 6 7 8 10 12 11 12 13 15 18 21 20 21 17 9 12 10 4

GFSNE_925_spd_111.txt.gz
Wind_Speed
37 37 36 28 21 21 20 22 13 6 8 13 11 26 24 22 24 22 21 21 23 21 22 23 25 27 28 28 27 27 27 28 29 29 30 30 31 31
32 31 28 27 31 23 17 14 19 14 6 14 20 13 17 16 14 16 18 17 16 16 15 17 21 23 24 25 25 25 25 26 26 25 27 25 24 23
29 34 31 26 26 24 22 26 20 14 9 14 7 13 14 12 3 9 9 7 12 13 15 16 19 20 20 20 21 21 21 18 20 17 15 11 7 3
29 31 32 29 25 27 19 18 26 23 14 13 15 10 12 12 14 19 16 5 9 16 17 19 19 18 18 19 19 19 20 20 18 15 11 6 3 3
29 31 31 33 31 27 23 13 14 12 10 9 15 16 12 12 8 15 17 19 14 14 17 15 16 16 16 16 16 15 12 9 6 4 2 2 7 9
26 31 31 34 33 31 27 23 16 11 12 13 19 15 17 18 14 16 12 13 12 13 12 8 6 7 8 8 7 6 5 5 2 4 6 8 10 13
27 28 29 30 32 30 27 26 25 22 19 19 17 12 13 12 15 19 20 20 15 16 12 9 9 8 8 8 7 5 4 6 7 8 9 11 12 14
23 27 30 32 31 32 36 30 33 26 20 17 18 12 16 21 19 23 21 13 5 16 16 13 12 9 8 5 3 3 5 7 7 8 10 13 14 15
23 22 24 27 32 33 31 27 27 28 30 28 24 20 20 21 23 26 27 18 10 16 19 9 11 10 7 6 2 4 5 6 8 10 12 12 14 15
22 22 23 26 30 31 29 27 25 24 27 27 23 22 20 18 18 20 22 14 11 12 13 5 9 9 8 3 2 3 4 7 8 12 13 13 13 14
23 25 25 25 30 32 32 28 19 13 10 14 14 13 13 14 14 15 12 18 5 4 6 7 8 7 7 4 3 4 5 7 11 13 12 12 14 17
17 18 26 26 24 31 36 34 26 21 15 10 10 8 7 6 5 6 10 13 12 5 7 6 10 6 4 7 8 5 3 7 12 10 11 11 13 15
6 2 1 6 16 19 28 26 23 22 17 18 19 18 17 17 15 13 12 12 12 8 10 9 7 5 3 2 2 3 4 6 7 7 8 11 13 13
18 18 17 12 14 15 16 20 24 25 24 24 23 22 20 20 19 19 18 17 16 17 11 7 7 4 4 1 1 1 4 7 6 7 12 13 13 12
31 34 34 32 32 33 29 29 27 26 25 25 22 20 17 16 15 16 16 17 16 13 11 10 8 6 4 2 2 4 8 8 4 12 12 13 12 12
33 32 31 34 34 34 30 26 26 24 22 19 17 17 14 12 12 11 12 12 12 10 9 8 6 4 2 1 3 5 7 7 11 11 13 12 10 8
31 29 27 29 26 26 26 23 22 21 18 15 13 14 13 11 12 10 10 10 10 8 7 5 5 2 0 2 4 6 8 8 10 13 13 12 9 5
25 24 23 21 20 20 18 18 18 16 14 14 13 12 12 11 10 10 9 8 8 6 6 6 5 3 3 3 3 6 7 10 11 12 11 11 9 6
25 22 21 19 18 17 15 15 15 14 13 13 12 12 12 11 9 9 8 7 6 5 4 4 6 7 5 4 3 6 8 12 13 12 10 10 11 10
21 19 19 17 16 15 14 14 13 13 13 13 12 11 10 9 8 7 7 5 5 4 3 4 5 6 6 6 8 12 11 9 11 13 13 12 14 12
18 18 18 17 15 14 13 13 13 13 12 12 11 10 9 7 7 6 7 5 3 3 2 4 5 10 6 9 10 10 12 12 11 14 12 11 10 9
17 18 17 16 15 14 13 13 13 12 11 10 9 8 8 7 6 5 4 4 4 4 4 5 6 6 7 9 12 14 13 14 12 11 12 10 7 4
16 16 15 15 12 12 11 11 11 10 10 9 8 7 6 6 5 4 3 3 4 4 5 7 7 7 8 9 11 13 14 14 13 12 10 5 6 9

GFSNE_925_spd_117.txt.gz
Wind_Speed
33 31 27 26 28 26 27 31 18 5 9 18 12 31 24 27 31 29 28 23 21 20 20 20 20 23 23 24 26 28 28 28 28 26 24 23 20 20
30 29 27 24 28 29 28 29 23 14 4 17 22 25 31 29 26 24 26 22 20 19 19 21 22 22 23 25 26 26 25 22 19 17 16 13 14 14
29 28 29 26 28 26 29 28 26 15 5 18 24 18 26 26 24 22 18 16 15 16 21 20 18 17 17 18 18 17 17 16 14 12 14 15 15 11
28 28 28 32 29 29 29 26 26 20 5 14 22 22 20 18 19 16 13 11 10 12 11 11 10 12 17 15 14 14 15 15 15 15 16 15 12 9
29 28 29 31 30 30 32 30 27 26 18 5 4 14 19 22 18 15 12 10 10 12 13 15 17 19 17 14 14 13 15 14 14 12 10 7 6 6
30 33 30 33 32 32 32 30 29 27 23 16 10 11 17 18 23 21 15 13 13 12 11 9 9 10 10 11 11 9 9 9 8 6 4 3 1 5
27 29 32 35 36 35 33 30 29 25 24 20 18 8 12 14 16 14 15 17 15 14 13 12 12 10 11 10 10 11 9 6 5 4 6 5 5 4
23 23 28 30 35 37 39 39 42 32 27 21 18 14 18 16 18 18 19 12 6 17 20 17 13 13 12 9 9 8 6 6 6 5 4 4 4 4
20 20 22 22 26 30 32 28 29 32 29 28 21 18 16 20 21 21 21 18 11 17 23 14 15 12 12 10 7 6 5 6 6 6 5 4 3 4
18 18 18 17 19 24 27 24 21 19 16 15 16 17 19 19 21 21 23 20 11 14 20 7 18 13 13 10 7 6 4 5 6 6 4 5 7 9
14 14 15 16 18 20 23 21 16 13 11 16 18 18 18 17 15 14 13 18 4 6 12 9 14 13 12 11 7 3 4 6 3 2 4 7 7 9
14 13 15 16 17 20 24 25 24 20 17 15 13 10 6 5 6 10 12 18 9 5 12 8 20 12 7 8 10 6 4 4 2 5 2 2 5 7
14 10 7 14 19 24 25 28 27 25 19 17 16 14 12 11 9 7 8 12 12 5 15 11 15 14 7 8 9 7 6 3 3 3 1 4 6 3
19 16 12 10 16 21 18 18 23 25 23 22 21 20 19 18 17 15 12 11 8 12 17 9 11 15 11 9 6 9 6 4 3 1 5 7 2 2
27 28 29 29 29 30 29 31 29 25 26 26 26 24 22 22 22 22 22 21 22 18 13 10 16 14 10 10 10 8 9 5 3 3 6 3 3 1
31 32 33 33 33 31 28 25 25 25 27 29 27 25 23 22 22 22 24 24 26 22 17 16 17 15 16 15 10 10 5 4 3 5 5 3 2 4
31 34 33 27 32 29 28 29 29 28 28 26 25 23 23 23 19 17 17 21 24 20 17 15 12 12 14 13 12 6 2 1 5 4 5 7 4 2
29 30 27 23 25 22 23 24 25 24 23 24 25 25 24 23 22 20 20 21 21 17 15 10 8 9 8 6 5 3 3 5 6 8 6 9 11 7
31 27 25 24 24 24 24 25 27 25 24 24 23 22 22 21 21 20 18 18 17 15 12 9 6 7 4 1 2 2 5 6 9 12 12 11 13 16
28 26 25 24 24 25 26 27 27 25 24 22 21 20 20 20 20 18 16 15 13 15 14 11 10 7 3 3 2 5 5 10 11 14 17 16 16 13
25 28 29 29 28 27 26 25 25 23 22 21 20 18 16 16 16 15 14 13 15 15 13 10 9 6 5 3 4 4 10 7 8 15 14 17 13 10
25 27 28 28 27 25 23 22 22 21 20 19 18 16 14 15 15 15 13 11 11 9 7 6 5 4 3 7 8 7 10 15 9 6 8 10 12 4
28 29 28 26 24 23 21 20 20 19 17 16 16 15 13 14 12 12 12 10 7 6 5 4 5 5 6 10 8 11 14 16 10 16 18 11 11 11

GFSNE_925_spd_120.txt.gz
Wind_Speed
31 30 30 28 29 29 27 29 19 4 6 17 13 33 33 32 31 29 28 25 25 26 25 25 23 23 24 23 25 26 26 26 27 26 27 26 24 19
29 29 29 26 29 29 29 26 23 9 7 12 27 15 32 32 30 30 30 28 27 26 25 26 24 24 23 23 23 25 26 26 26 24 19 15 10 9
28 28 28 27 26 27 31 32 24 18 7 11 26 20 22 30 28 29 31 30 26 25 25 24 24 24 23 19 19 20 19 17 13 8 11 12 12 13
28 27 28 27 27 28 28 28 28 25 17 14 23 22 15 29 29 20 18 18 18 18 21 19 16 15 18 14 18 16 15 12 15 17 16 15 13 11
28 29 27 28 26 25 28 28 26 28 25 16 15 21 12 18 21 19 16 16 14 13 10 9 10 14 14 16 18 17 16 17 20 21 18 14 9 7
29 29 30 31 28 28 29 29 28 24 24 23 20 17 20 21 25 25 19 17 16 12 8 10 12 12 12 14 12 17 18 16 14 11 10 8 6 5
28 29 31 32 32 33 29 27 28 26 24 21 16 9 15 20 25 25 21 19 12 11 12 12 12 12 11 11 11 11 10 10 9 8 6 5 2 1
26 29 30 29 31 34 37 35 38 31 24 20 17 16 18 22 24 26 22 11 5 14 19 17 15 15 14 11 9 9 9 9 8 7 5 4 2 0
25 25 26 28 30 32 31 31 36 37 35 31 26 24 24 26 23 21 19 15 12 17 24 19 18 15 14 12 10 10 9 8 8 6 3 4 2 1
21 21 20 18 20 29 29 25 22 21 27 24 29 28 30 30 26 25 26 21 12 18 22 8 19 15 15 12 10 8 6 4 5 7 4 2 3 4
15 15 14 15 17 19 25 23 17 15 15 21 22 22 21 21 21 21 20 23 5 9 20 11 16 15 15 14 11 6 6 4 7 6 2 1 1 4
15 15 16 16 18 17 21 25 24 20 17 15 14 14 13 13 16 17 18 21 10 5 16 11 20 14 7 15 12 8 6 5 4 6 1 2 3 5
15 12 13 16 17 19 20 26 25 23 20 17 16 14 12 10 8 7 12 14 13 5 17 14 17 15 7 7 15 10 8 7 5 5 5 5 6 4
17 13 11 12 22 23 22 22 22 26 22 21 19 17 16 15 14 12 11 11 8 8 20 12 12 18 11 7 6 13 9 5 7 6 3 4 2 3
21 22 23 21 21 20 21 22 26 25 25 24 23 21 20 20 20 21 19 19 20 18 12 6 12 17 14 12 13 14 14 8 7 3 4 3 4 6
29 25 25 25 26 26 26 23 22 24 25 28 28 25 23 21 23 23 26 25 27 23 19 16 15 14 17 17 20 15 10 6 3 3 5 4 5 5
30 26 26 30 29 26 25 26 25 26 28 27 28 23 25 25 24 19 15 18 23 21 20 18 16 17 17 17 15 9 7 2 3 4 6 6 5 4
33 25 22 23 24 22 23 22 26 26 27 27 24 24 25 24 23 22 23 25 25 20 18 17 18 18 15 11 8 7 3 3 4 5 5 8 11 9
31 24 25 23 20 26 24 21 23 23 25 27 29 27 26 25 24 23 22 22 22 18 14 11 8 7 4 1 3 3 3 4 6 8 9 10 16 15
28 28 24 22 24 24 23 25 27 26 25 25 24 24 25 25 24 22 19 20 20 18 16 12 10 7 4 5 3 2 3 7 8 10 15 14 16 12
26 27 25 25 26 26 26 26 25 26 24 23 22 21 21 22 22 20 18 19 17 16 15 12 9 7 6 4 3 2 5 5 8 10 11 12 12 13
26 26 25 25 25 26 26 26 26 24 23 22 20 18 17 16 18 17 16 17 15 13 12 10 6 4 6 6 5 6 10 12 7 4 6 9 10 6
25 26 25 24 22 22 22 22 23 22 20 19 18 16 15 16 14 13 12 11 8 7 5 4 4 5 7 7 6 7 11 10 13 14 15 14 15 18